Time,TemperatureF,DewpointF,PressureIn,WindDirection,WindDirectionDegrees,WindSpeedMPH,WindSpeedGustMPH,Humidity,HourlyPrecipIn,Conditions,Clouds,dailyrainin,SoftwareType,DateUTC
2013-02-01 00:04:00,32.0,-99.9,-100.00,West,260,22.0,31.0,-999,-99.99,,,-99.99,,2013-02-01 05:04:00,
2013-02-01 00:12:00,32.0,-99.9,-100.00,West,260,22.0,31.0,-999,-99.99,,,-99.99,,2013-02-01 05:12:00,
2013-02-01 00:23:00,32.0,-99.9,-100.00,West,260,25.0,31.0,-999,-99.99,,,-99.99,,2013-02-01 05:23:00,
2013-02-01 00:32:00,32.0,-99.9,-100.00,West,260,25.0,31.0,-999,-99.99,,,-99.99,,2013-02-01 05:32:00,
2013-02-01 00:42:00,32.0,-99.9,-100.00,West,260,25.0,31.0,-999,-99.99,,,-99.99,,2013-02-01 05:42:00,
2013-02-01 00:52:00,32.0,-99.9,-100.00,West,270,25.0,36.0,-999,-99.99,,,-99.99,,2013-02-01 05:52:00,
2013-02-01 01:02:00,32.0,-99.9,-100.00,West,270,25.0,36.0,-999,-99.99,,,-99.99,,2013-02-01 06:02:00,
2013-02-01 01:12:00,32.0,-99.9,-100.00,West,270,25.0,36.0,-999,-99.99,,,-99.99,,2013-02-01 06:12:00,
2013-02-01 01:22:00,32.0,-99.9,-100.00,West,260,25.0,34.0,-999,-99.99,,,-99.99,,2013-02-01 06:22:00,
2013-02-01 01:32:00,32.0,-99.9,-100.00,West,260,25.0,34.0,-999,-99.99,,,-99.99,,2013-02-01 06:32:00,
2013-02-01 01:42:00,32.0,-99.9,-100.00,West,260,25.0,34.0,-999,-99.99,,,-99.99,,2013-02-01 06:42:00,
2013-02-01 01:52:00,32.0,-99.9,-100.00,West,270,25.0,31.0,-999,-99.99,,,-99.99,,2013-02-01 06:52:00,
2013-02-01 02:02:00,32.0,-99.9,-100.00,West,270,25.0,31.0,-999,-99.99,,,-99.99,,2013-02-01 07:02:00,
2013-02-01 02:12:00,32.0,-99.9,-100.00,West,270,25.0,31.0,-999,-99.99,,,-99.99,,2013-02-01 07:12:00,
2013-02-01 02:22:00,31.0,-99.9,-100.00,WSW,250,22.0,29.0,-999,-99.99,,,-99.99,,2013-02-01 07:22:00,
2013-02-01 02:32:00,31.0,-99.9,-100.00,WSW,250,22.0,29.0,-999,-99.99,,,-99.99,,2013-02-01 07:32:00,
2013-02-01 02:42:00,31.0,-99.9,-100.00,WSW,250,22.0,29.0,-999,-99.99,,,-99.99,,2013-02-01 07:42:00,
2013-02-01 02:52:00,31.0,-99.9,-100.00,WSW,250,22.0,29.0,-999,-99.99,,,-99.99,,2013-02-01 07:52:00,
2013-02-01 03:02:00,31.0,-99.9,-100.00,WSW,250,22.0,29.0,-999,-99.99,,,-99.99,,2013-02-01 08:02:00,
2013-02-01 03:11:00,31.0,-99.9,-100.00,WSW,250,22.0,29.0,-999,-99.99,,,-99.99,,2013-02-01 08:11:00,
2013-02-01 03:22:00,31.0,-99.9,-100.00,West,260,22.0,29.0,-999,-99.99,,,-99.99,,2013-02-01 08:22:00,
2013-02-01 03:32:00,31.0,-99.9,-100.00,West,260,22.0,29.0,-999,-99.99,,,-99.99,,2013-02-01 08:32:00,
2013-02-01 03:42:00,31.0,-99.9,-100.00,West,260,22.0,29.0,-999,-99.99,,,-99.99,,2013-02-01 08:42:00,
2013-02-01 03:52:00,31.0,-99.9,-100.00,WSW,250,22.0,29.0,-999,-99.99,,,-99.99,,2013-02-01 08:52:00,
2013-02-01 04:02:00,31.0,-99.9,-100.00,WSW,250,22.0,29.0,-999,-99.99,,,-99.99,,2013-02-01 09:02:00,
2013-02-01 04:11:00,31.0,-99.9,-100.00,WSW,250,20.0,29.0,-999,-99.99,,,-99.99,,2013-02-01 09:11:00,
2013-02-01 04:22:00,31.0,-99.9,-100.00,WSW,250,20.0,29.0,-999,-99.99,,,-99.99,,2013-02-01 09:22:00,
2013-02-01 04:32:00,31.0,-99.9,-100.00,WSW,250,20.0,29.0,-999,-99.99,,,-99.99,,2013-02-01 09:32:00,
2013-02-01 04:42:00,31.0,-99.9,-100.00,WSW,250,20.0,29.0,-999,-99.99,,,-99.99,,2013-02-01 09:42:00,
2013-02-01 04:52:00,31.0,-99.9,-100.00,WSW,240,18.0,25.0,-999,-99.99,,,-99.99,,2013-02-01 09:52:00,
2013-02-01 05:01:00,31.0,-99.9,-100.00,WSW,240,18.0,25.0,-999,-99.99,,,-99.99,,2013-02-01 10:01:00,
2013-02-01 05:11:00,31.0,-99.9,-100.00,WSW,240,18.0,25.0,-999,-99.99,,,-99.99,,2013-02-01 10:11:00,
2013-02-01 05:21:00,31.0,-99.9,-100.00,WSW,240,20.0,27.0,-999,-99.99,,,-99.99,,2013-02-01 10:21:00,
2013-02-01 05:32:00,31.0,-99.9,-100.00,WSW,240,20.0,27.0,-999,-99.99,,,-99.99,,2013-02-01 10:32:00,
2013-02-01 05:43:00,31.0,-99.9,-100.00,WSW,240,20.0,27.0,-999,-99.99,,,-99.99,,2013-02-01 10:43:00,
2013-02-01 05:53:00,31.0,-99.9,-100.00,WSW,240,22.0,27.0,-999,-99.99,,,-99.99,,2013-02-01 10:53:00,
2013-02-01 06:02:00,31.0,-99.9,-100.00,WSW,240,22.0,27.0,-999,-99.99,,,-99.99,,2013-02-01 11:02:00,
2013-02-01 06:11:00,31.0,-99.9,-100.00,WSW,240,22.0,27.0,-999,-99.99,,,-99.99,,2013-02-01 11:11:00,
2013-02-01 06:22:00,32.0,-99.9,-100.00,WSW,240,25.0,31.0,-999,-99.99,,,-99.99,,2013-02-01 11:22:00,
2013-02-01 06:32:00,32.0,-99.9,-100.00,WSW,240,25.0,31.0,-999,-99.99,,,-99.99,,2013-02-01 11:32:00,
2013-02-01 06:42:00,32.0,-99.9,-100.00,WSW,240,25.0,31.0,-999,-99.99,,,-99.99,,2013-02-01 11:42:00,
2013-02-01 06:53:00,31.0,-99.9,-100.00,WSW,240,27.0,31.0,-999,-99.99,,,-99.99,,2013-02-01 11:53:00,
2013-02-01 07:03:00,31.0,-99.9,-100.00,WSW,240,27.0,31.0,-999,-99.99,,,-99.99,,2013-02-01 12:03:00,
2013-02-01 07:12:00,31.0,-99.9,-100.00,WSW,240,27.0,31.0,-999,-99.99,,,-99.99,,2013-02-01 12:12:00,
2013-02-01 07:23:00,31.0,-99.9,-100.00,WSW,250,25.0,29.0,-999,-99.99,,,-99.99,,2013-02-01 12:23:00,
2013-02-01 07:32:00,31.0,-99.9,-100.00,WSW,250,25.0,29.0,-999,-99.99,,,-99.99,,2013-02-01 12:32:00,
2013-02-01 07:42:00,31.0,-99.9,-100.00,WSW,250,25.0,29.0,-999,-99.99,,,-99.99,,2013-02-01 12:42:00,
2013-02-01 07:52:00,31.0,-99.9,-100.00,West,260,22.0,27.0,-999,-99.99,,,-99.99,,2013-02-01 12:52:00,
2013-02-01 08:02:00,31.0,-99.9,-100.00,West,260,22.0,27.0,-999,-99.99,,,-99.99,,2013-02-01 13:02:00,
2013-02-01 08:12:00,31.0,-99.9,-100.00,West,260,22.0,27.0,-999,-99.99,,,-99.99,,2013-02-01 13:12:00,
2013-02-01 08:22:00,31.0,-99.9,-100.00,West,260,20.0,27.0,-999,-99.99,,,-99.99,,2013-02-01 13:22:00,
2013-02-01 08:33:00,31.0,-99.9,-100.00,West,260,20.0,27.0,-999,-99.99,,,-99.99,,2013-02-01 13:33:00,
2013-02-01 08:43:00,31.0,-99.9,-100.00,West,260,20.0,27.0,-999,-99.99,,,-99.99,,2013-02-01 13:43:00,
2013-02-01 08:53:00,30.0,-99.9,-100.00,West,270,20.0,25.0,-999,-99.99,,,-99.99,,2013-02-01 13:53:00,
2013-02-01 09:04:00,30.0,-99.9,-100.00,West,270,20.0,25.0,-999,-99.99,,,-99.99,,2013-02-01 14:04:00,
2013-02-01 09:12:00,30.0,-99.9,-100.00,West,270,20.0,25.0,-999,-99.99,,,-99.99,,2013-02-01 14:12:00,
2013-02-01 09:22:00,30.0,-99.9,-100.00,West,280,16.0,20.0,-999,-99.99,,,-99.99,,2013-02-01 14:22:00,
2013-02-01 09:33:00,30.0,-99.9,-100.00,West,280,16.0,20.0,-999,-99.99,,,-99.99,,2013-02-01 14:33:00,
2013-02-01 09:43:00,30.0,-99.9,-100.00,West,280,16.0,20.0,-999,-99.99,,,-99.99,,2013-02-01 14:43:00,
2013-02-01 09:53:00,29.0,-99.9,-100.00,West,280,16.0,22.0,-999,-99.99,,,-99.99,,2013-02-01 14:53:00,
2013-02-01 10:03:00,29.0,-99.9,-100.00,West,280,16.0,22.0,-999,-99.99,,,-99.99,,2013-02-01 15:03:00,
2013-02-01 10:12:00,30.0,-99.9,-100.00,WNW,290,18.0,22.0,-999,-99.99,,,-99.99,,2013-02-01 15:12:00,
2013-02-01 10:22:00,30.0,-99.9,-100.00,WNW,290,18.0,22.0,-999,-99.99,,,-99.99,,2013-02-01 15:22:00,
2013-02-01 10:33:00,30.0,-99.9,-100.00,WNW,290,18.0,22.0,-999,-99.99,,,-99.99,,2013-02-01 15:33:00,
2013-02-01 10:42:00,30.0,-99.9,-100.00,WNW,290,18.0,22.0,-999,-99.99,,,-99.99,,2013-02-01 15:42:00,
2013-02-01 10:51:00,30.0,13.0,-100.00,WNW,290,20.0,25.0,49,-99.99,,,-99.99,,2013-02-01 15:51:00,
2013-02-01 11:01:00,30.0,13.0,-100.00,WNW,290,20.0,25.0,49,-99.99,,,-99.99,,2013-02-01 16:01:00,
2013-02-01 11:11:00,30.0,13.0,-100.00,WNW,290,20.0,25.0,49,-99.99,,,-99.99,,2013-02-01 16:11:00,
2013-02-01 11:21:00,30.0,13.0,-100.00,WNW,290,18.0,22.0,48,-99.99,,,-99.99,,2013-02-01 16:21:00,
2013-02-01 11:32:00,30.0,13.0,-100.00,WNW,290,18.0,22.0,48,-99.99,,,-99.99,,2013-02-01 16:32:00,
2013-02-01 11:42:00,30.0,13.0,-100.00,WNW,290,18.0,22.0,48,-99.99,,,-99.99,,2013-02-01 16:42:00,
2013-02-01 11:52:00,30.0,12.0,-100.00,NW,310,18.0,22.0,46,-99.99,,,-99.99,,2013-02-01 16:52:00,
2013-02-01 12:01:00,30.0,12.0,-100.00,NW,310,18.0,22.0,46,-99.99,,,-99.99,,2013-02-01 17:01:00,
2013-02-01 12:11:00,30.0,13.0,-100.00,NW,310,20.0,25.0,49,-99.99,,,-99.99,,2013-02-01 17:11:00,
2013-02-01 12:21:00,30.0,13.0,-100.00,NW,310,20.0,25.0,49,-99.99,,,-99.99,,2013-02-01 17:21:00,
2013-02-01 12:31:00,30.0,13.0,-100.00,NW,310,20.0,25.0,49,-99.99,,,-99.99,,2013-02-01 17:31:00,
2013-02-01 12:41:00,30.0,13.0,-100.00,NW,310,20.0,25.0,49,-99.99,,,-99.99,,2013-02-01 17:41:00,
2013-02-01 12:52:00,30.0,11.0,-100.00,NW,310,20.0,29.0,45,-99.99,,,-99.99,,2013-02-01 17:52:00,
2013-02-01 13:01:00,30.0,11.0,-100.00,NW,310,20.0,29.0,45,-99.99,,,-99.99,,2013-02-01 18:01:00,
2013-02-01 13:11:00,30.0,11.0,-100.00,NW,310,20.0,29.0,45,-99.99,,,-99.99,,2013-02-01 18:11:00,
2013-02-01 13:21:00,30.0,12.0,-100.00,WNW,300,22.0,29.0,46,-99.99,,,-99.99,,2013-02-01 18:21:00,
2013-02-01 13:31:00,30.0,12.0,-100.00,WNW,300,22.0,29.0,46,-99.99,,,-99.99,,2013-02-01 18:31:00,
2013-02-01 13:41:00,30.0,12.0,-100.00,WNW,300,22.0,29.0,46,-99.99,,,-99.99,,2013-02-01 18:41:00,
2013-02-01 13:52:00,30.0,12.0,-100.00,WNW,300,20.0,27.0,45,-99.99,,,-99.99,,2013-02-01 18:52:00,
2013-02-01 14:00:00,31.0,11.0,-100.00,WNW,290,22.0,31.0,43,-99.99,,,-99.99,,2013-02-01 19:00:00,
2013-02-01 14:01:00,30.0,12.0,-100.00,WNW,300,20.0,27.0,45,-99.99,,,-99.99,,2013-02-01 19:01:00,
2013-02-01 14:11:00,31.0,11.0,-100.00,WNW,300,20.0,29.0,43,-99.99,,,-99.99,,2013-02-01 19:11:00,
2013-02-01 14:21:00,31.0,11.0,-100.00,WNW,300,20.0,29.0,43,-99.99,,,-99.99,,2013-02-01 19:21:00,
2013-02-01 14:31:00,31.0,11.0,-100.00,WNW,300,20.0,29.0,43,-99.99,,,-99.99,,2013-02-01 19:31:00,
2013-02-01 14:41:00,31.0,11.0,-100.00,WNW,300,20.0,29.0,43,-99.99,,,-99.99,,2013-02-01 19:41:00,
2013-02-01 14:51:00,31.0,11.0,-100.00,WNW,290,22.0,31.0,43,-99.99,,,-99.99,,2013-02-01 19:51:00,